Weather Roundup
Issued by NWS

Home | Current Version | Previous Version | Graphics & Text | Print | Product List | Glossary Off
Versions: 1 2 3 4 5 6 7 8 9 10 11 12 13 14 15 16 17 18 19 20 21 22 23 24 25 26 27 28 29 30 31 32 33 34 35 36 37 38 39 40 41 42 43 44 45 46 47 48 49 50

000
NZUS93 KARX 291959
HRRWXR

CURRENT HOURLY OBSERVATIONS ACROSS
MUCH OF THE UPPER MISSISSIPPI VALLEY
NATIONAL WEATHER SERVICE LA CROSSE WI
300 PM CDT SAT AUG 29 2015


...SOUTHEAST MINNESOTA...


CITY           SKY/WX    TMP DP  RH WIND       PRES   REMARKS
ROCHESTER      SUNNY     74  65  73 CALM      30.06S
ROCHESTER/MAYO FAIR      74  62  66 SE3       30.05F
WINONA         CLOUDY    70  61  73 SE5       30.06R
AUSTIN         SUNNY     73  63  68 CALM      30.05F
ALBERT LEA     SUNNY     72  63  73 S3        30.05F
DODGE CENTER   MOSUNNY   72  61  68 CALM      30.06S
PRESTON        MOSUNNY   70  60  71 CALM      30.07S
OWATONNA       SUNNY     73  63  68 SW3       30.05S
FARIBAULT      SUNNY     72  64  78 CALM      30.05F
$$

...ELSEWHERE IN MINNESOTA...


CITY           SKY/WX    TMP DP  RH WIND       PRES   REMARKS
MINNEAPOLIS    PTSUNNY   72  61  68 VRB5      30.04F
INTNL FALLS    NOT AVBL
DULUTH         PTSUNNY   74  61  63 SW10      30.02F
RED WING       SUNNY     73  61  64 CALM      30.04F
REDWOOD FALLS  MOSUNNY   73  62  68 S7        30.03S
MANKATO        CLOUDY    64  59  82 CALM      30.05F
WORTHINGTON    SUNNY     72  63  73 SW7       30.06S
FAIRMONT       PTSUNNY   66  57  72 S7        30.05F
$$

...SOUTHWEST WISCONSIN...


CITY           SKY/WX    TMP DP  RH WIND       PRES   REMARKS
LA CROSSE      CLOUDY    72  62  71 NW6       30.04S
PRAIRIE DU CHI CLOUDY    70  60  70 CALM      30.03S
BOSCOBEL       CLOUDY    71  63  75 VRB3      30.04S
LONE ROCK      NOT AVBL
PLATTEVILLE    CLOUDY    70  65  85 N7        30.03S
FORT MC COY    CLOUDY    70  59  67 E5        30.06S
VIROQUA        CLOUDY    69  62  78 NE3       30.05F
WIS DELLS      CLOUDY    69  61  75 NE8       30.04F
$$

...ELSEWHERE IN WISCONSIN...


CITY           SKY/WX    TMP DP  RH WIND       PRES   REMARKS
MILWAUKEE      FOG       61  59  93 NE3       30.04S VSB 3/4
MADISON        CLOUDY    67  63  87 E8        30.03S
GREEN BAY      CLOUDY    71  62  73 CALM      30.04F
EAU CLAIRE     CLOUDY    68  59  73 VRB3      30.05F
BLACK RVR FLS  CLOUDY    69  60  73 NE3       30.05S
MEDFORD        CLOUDY    67  61  81 CALM      30.07F
WAUSAU         CLOUDY    66  59  78 W3        30.05F
WIS RAPIDS     NOT AVBL
MARSHFIELD     CLOUDY    66  58  75 E3        30.07F
RICE LAKE      MOSUNNY   73  60  63 S6        30.07S
$$

...NORTHEAST IOWA...


CITY           SKY/WX    TMP DP  RH WIND       PRES   REMARKS
DECORAH        PTSUNNY   70  63  78 N5        30.04S
MASON CITY     PTSUNNY   73  63  70 CALM      30.06F
CHARLES CITY   MOSUNNY   73  66  78 VRB7      30.05S
OELWEIN        CLOUDY    70  64  83 NE7       30.04S
$$

...ELSEWHERE IN IOWA...


CITY           SKY/WX    TMP DP  RH WIND       PRES   REMARKS
DES MOINES     CLOUDY    73  64  73 NW6       30.03S
IOWA CITY      CLOUDY    75  68  78 NE6       30.01S
FORT DODGE     CLOUDY    66  61  82 NW3       30.07F
$$

...NORTHERN ILLINOIS...


CITY           SKY/WX    TMP DP  RH WIND       PRES   REMARKS
CHICAGO-OHARE  CLOUDY    69  66  90 W5        30.00F
CHICAGO-MIDWAY CLOUDY    76  64  66 SW12      29.99F
MOLINE         CLOUDY    76  66  71 CALM      29.99S
ROCKFORD       CLOUDY    70  64  81 N5        30.03S
PEORIA         PTSUNNY   82  65  56 S3        29.99F
$$

NOTE: "FAIR" INDICATES FEW OR NO CLOUDS BELOW 12,000 FEET WITH NO
SIGNIFICANT WEATHER AND/OR OBSTRUCTIONS TO VISIBILITY. WIND
SPEEDS ARE IN MILES-PER-HOUR.



USA.gov is the U.S. government's official web portal to all federal, state and local government web resources and services.